DMSP 5D-2 F13 DEB, 42289

Orbit data source: Space-Track

DMSP 5D-2 F13 DEB, 42289 is space debris in SSO originally from a launch on Fri, 24 Mar 1995 UTC launched from the Air Force Western Test Range (AFWTR). Debris objects in space refer to the collection of defunct objects orbiting the Earth. Examples of debris include non-operational satellites, rocket bodies, and fragments generated from explosions, collisions, or faulty payload assembly.

Loading next visibility...
Identifier
42289, 1995-015HF
Orbit
SSO
Country
Flag of USUS
Related business
Manufacturer
Unknown
Mission
Spacecraft
Bus & Motor
Unknown
Mass
Unknown
Launch date (UTC)
1995-03-24 (31 years ago)
Launch vehicle
Unknown
Launch site
Air Force Western Test Range (AFWTR)
Object type
Payload
Rocket body
Debris
Shape & HBR
Unknown shape, 0.1 m
Radar Cross Section
Small (<0.1 m²)

Expand to show TLE details & history
Last TLE update: 1 day ago

TLE from 1 day ago
0 DMSP 5D-2 F13 DEB
1 42289U 95015HF  25287.51525258  .00044642  00000-0  66373-2 0  9999
2 42289  98.8709 311.1663 0016132 292.6222  67.3277 14.74688498539005
Epoch: 2025-10-14T12:21Z
TLE epoch observation values (Epoch: 2025-10-14T12:21:57.822Z)
Latitude
-0.00009°
Longitude
102.37282°
Altitude
644.771 km
Speed
7.538 km/s
True Right ascension
20h 44m 39s
True Declination
0° 00' 00"
Sunlit
Object was in daylight at epoch
Visualization orbit readout
Latitude
Unknown
Longitude
Unknown
Altitude
Unknown
Speed
Unknown
Apparent Right ascension
Unknown
Apparent Declination
Unknown
Sunlit
N/A
Visualization observer readout
Local Sidereal Time
12:41:18
Azimuth
Unknown
Elevation
Unknown
Doppler factor
Unknown
Orbital elements
Apogee altitude
654.561 km
Perigee altitude
631.907 km
Semi-major axis
7,021.371 km
Eccentricity
0.00161
Inclination
98.8709°
RAAN
311.1663°
Arg. of periapsis
292.6222°
True anomaly
67.49841°
Mean anomaly
67.3277°
Eccentric anomaly
67.41304°
Mean motion
3.68901 °/min
Orbital period
97.59 mins
BSTAR
0.0066373

Documentation

Showing up to 5 results
|